Tracking 29933 objects as of 2-Dec-2024
HD Live streaming from Space Station
objects crossing your sky now

STARLINK-11265

Track STARLINK-11265 now!
10-day predictions
STARLINK-11265 is classified as:


NORAD ID: 60909
Int'l Code: 2024-154G
Perigee: 366.1 km
Apogee: 367.7 km
Inclination: 53.2 °
Period: 91.7 minutes
Semi major axis: 6737 km
RCS: Unknown
Launch date: August 31, 2024
Source: United States (US)
Launch site: AIR FORCE EASTERN TEST RANGE (AFETR)
Your satellite tracking list
Your tracking list is empty




NASA's NSSDC Master Catalog

Two Line Element Set (TLE):
1 60909U 24154G   24335.82186620  .00005403  00000-0  49453-4 0  9991
2 60909  53.1579 258.3316 0001147  75.7696 284.3449 15.69695290 15650
Source of the keplerian elements: AFSPC